Weather Roundup
Issued by NWS Chicago, IL

Home | Current Version | Previous Version | Graphics & Text | Print | Product List | Glossary On
Versions: 1 2 3 4 5 6 7 8 9 10 11 12 13 14 15 16 17 18 19 20 21 22 23 24 25 26 27 28 29 30 31 32 33 34 35 36 37 38 39 40 41 42 43 44 45 46 47 48 49 50
000
NZUS59 KLOT 041109
HRRLOT

CHICAGO AREA WEATHER ROUNDUP
NATIONAL WEATHER SERVICE CHICAGO/ROMEOVILLE IL
600 AM CDT FRI SEP 04 2015

NOTE: "FAIR" INDICATES FEW OR NO CLOUDS BELOW 12,000 FEET WITH NO
SIGNIFICANT WEATHER AND/OR OBSTRUCTIONS TO VISIBILITY.

* THESE STATIONS ARE NOT UNDER NWS QUALITY CONTROL. THEY ALSO MAY NOT
  REPORT WEATHER SUCH AS PRECIPITATION OR FOG.

ILZ005-006-012>014-019>023-041200-
NORTHEAST ILLINOIS

CITY           SKY/WX    TMP DP  RH WIND       PRES   REMARKS
OHARE          PTCLDY    69  66  90 CALM      29.98R
MIDWAY         PTCLDY    73  66  78 N3        29.98R
AURORA         CLEAR     65  63  93 CALM      29.99S FOG
LANSING*       CLEAR     66  65  97 CALM      29.99R
JOLIET*        CLEAR     67  67  98 CALM      29.99R FOG
WAUKEGAN       PTCLDY    66  65  96 CALM      29.98R
DUPAGE AIRPORT CLEAR     66  64  93 CALM      29.98R
WHEELING       CLEAR     67  65  93 CALM      30.00R
KANKAKEE*      MOCLDY    67  66  98 CALM      29.99S FOG
MORRIS*        CLEAR     67  66  96 CALM      29.98R FOG
LEWIS AIRPORT* CLEAR     67  67  99 CALM      29.99S FOG
NORTHERLY IS     N/A     69  66  90 CALM        N/A
$$

WIZ051-052-058>065-066-070>072-041200-
SOUTHEAST WISCONSIN

CITY           SKY/WX    TMP DP  RH WIND       PRES   REMARKS
MILWAUKEE      MOCLDY    64  62  93 N7        29.99R
KENOSHA*       CLEAR     65  64  97 N3        29.99R FOG
RACINE*        PTCLDY    65  62  90 N9        30.01R FOG
BURLINGTON     PTCLDY    64  63  97 CALM      29.99S FOG
WAUKESHA       PTCLDY    64  63  94 CALM      30.01R
WEST BEND      CLOUDY    63  63 100 CALM      30.01R FOG
$$

INZ001>003-010>013-019-020-041200-
NORTHWEST INDIANA

CITY           SKY/WX    TMP DP  RH WIND       PRES   REMARKS
GARY*          PTCLDY    68  64  88 CALM      29.98S
MICHIGAN CITY* NOT AVBL
RENSSELAER*    NOT AVBL
VALPARAISO     CLEAR     66  64  93 CALM      30.00R FOG
$$

LMZ740>746-041200-
SOUTHERN LAKE MICHIGAN

STATION/POSITION TIME  SKY/WX   TEMP WIND        PRES    VSBY
                                AIR  DIR/SP/G
                 (UTC)          (F)  (DEG/KT/KT) (MB)    (MI)
HARRISON CRIB    1000            69  340/  4/  5   N/A
BURNHAM HARBOR   1100            69   40/  2/  3   N/A
CALUMET HARBOR   1000            69   CALM  /  2   N/A
BURNS HARBOR     1000            72   10/  4/  7 1015.2S
MICHIGAN CITY    1000            70  330/  7/  8   N/A
$$

ABBREVIATIONS USED IN REMARKS
   TC - TEMPERATURE IN CELSIUS
  WCI - WIND CHILL INDEX
   HX - HEAT INDEX
  VSB - VISIBILITY
$$



USA.gov is the U.S. government's official web portal to all federal, state and local government web resources and services.